Flag for Guyana Weather past 2 weeks in Georgetown, Guyana

Now
73 °F

Clear.


Feels Like: 68 °F
Forecast: 79 / 87 °F
Wind: No wind

Location: Georgetown/Cheddi Jagan International Airport

Current Time: Aug 4, 2015 at 4:25:58 AM

Latest Report: Aug 4, 2015 at 3:00 AM


Visibility: 10 mi

Pressure: 29.92 "Hg

Humidity: 100%

Dew point: 73 °F

Location of GeorgetownLocation

Historic Weather in Georgetown — Graph

°F

Georgetown temperature yesterday

Maximum temperature yesterday: 91 °F (at 2:00 PM)
Minimum temperature yesterday: 75 °F (at 12:00 AM)
Average temperature yesterday: 83 °F

Past Weeks' High & Low Weather Summary

 TemperatureHumidityPressure
High91 °F (Aug 3, 2:00 PM)100% (Jul 20, 6:00 AM)31.23 "Hg (Jul 20, 6:00 AM)
Low72 °F (Jul 20, 6:00 AM)59% (Jul 31, 5:00 PM)29.80 "Hg (Jul 28, 4:00 PM)
Average79 °F87%29.93 "Hg
* Reported Jul 20 4:30 AM — Aug 4 3:00 AM, Georgetown, Weather by CustomWeather, © 2015

Note: Actual official high and low records may vary slightly from our data, if they occured in-between our weather recording intervals... More about our weather records

Advertising

Georgetown weather history for previous 24 hours

 ConditionsComfort  
Time TempWeatherWind HumidityBarometerVisibility
3:00 AM
Tue, Aug 4
73 °FClear.No wind100%29.92 "Hg10 mi
2:00 AM75 °FPassing clouds.2 mph94%29.92 "HgN/A
11:00 PM
Mon, Aug 3
77 °FClear.5 mph94%29.95 "Hg10 mi
10:00 PM77 °FClear.No wind94%29.95 "Hg10 mi
9:00 PM77 °FClear.5 mph89%29.92 "Hg10 mi
8:00 PM79 °FPassing clouds.5 mph89%29.92 "HgN/A
7:00 PM81 °FPassing clouds.7 mph84%29.86 "HgN/A
6:00 PM82 °FScattered clouds.12 mph79%29.86 "HgN/A
5:00 PM88 °FPassing clouds.12 mph66%29.86 "HgN/A
3:30 PM90 °FScattered clouds.7 mph63%29.83 "HgN/A
3:00 PM90 °FScattered clouds.9 mph67%29.83 "HgN/A
2:00 PM91 °FPartly sunny.12 mph63%29.86 "HgN/A
1:00 PM90 °FPartly sunny.N/A63%29.89 "HgN/A
12:00 PM90 °FPartly sunny.7 mph63%29.92 "HgN/A
11:00 AM88 °FPartly sunny.9 mph70%29.92 "HgN/A
10:00 AM86 °FPartly sunny.9 mph75%29.92 "HgN/A
9:00 AM84 °FPartly sunny.7 mph79%29.92 "HgN/A
8:00 AM82 °FPartly sunny.9 mph84%29.92 "HgN/A
7:00 AM79 °FPartly sunny.2 mph94%29.92 "HgN/A
6:00 AM77 °FPartly sunny.No wind94%29.89 "HgN/A
Weather by CustomWeather, © 2015

See weather overviewHow to use our weather pages